FW0879 Weather Reports


time (UTC)temp
C
wind
direction
speed
KPH
gust
KPH
rain 1hr
cm
rain 24hr
cm
rain mn
cm
humidity
%
barometer
mb
20260502180404 18 131 9.7 14.5 0.00 0.03 0.03 78 1015.5
20260502170403 19 116 17.7 24.1 0.00 0.03 0.03 76 1015.2
20260502163903 20 128 8.0 19.3 0.00 0.03 0.03 75 1015.6
20260502163404 20 114 11.3 19.3 0.00 0.03 0.03 76 1015.5
20260502162903 20 133 11.3 20.9 0.00 0.03 0.03 78 1015.5
20260502162403 19 92 14.5 25.7 0.00 0.03 0.03 78 1015.3
20260502161904 19 87 12.9 24.1 0.00 0.03 0.03 79 1015.3
20260502161404 19 79 19.3 22.5 0.00 0.03 0.03 80 1015.5
20260502160403 20 76 16.1 22.5 0.00 0.03 0.03 79 1015.8
20260502151903 19 81 14.5 19.3 0.00 0.03 0.03 81 1016.5
20260502151404 19 82 14.5 19.3 0.00 0.03 0.03 80 1016.5
20260502150904 19 73 11.3 20.9 0.00 0.03 0.03 81 1016.5
20260502150404 19 65 12.9 25.7 0.00 0.03 0.03 81 1016.2
20260502130404 21 75 11.3 22.5 0.00 0.03 0.03 75 1017.4
20260502123404 20 75 17.7 24.1 0.00 0.03 0.03 76 1017.8
20260502122903 20 102 11.3 22.5 0.00 0.03 0.03 76 1017.8
20260502122403 20 87 16.1 22.5 0.00 0.03 0.03 77 1017.7
20260502121904 20 73 17.7 24.1 0.00 0.03 0.03 76 1017.8
20260502121404 20 86 12.9 20.9 0.00 0.03 0.03 77 1017.7
20260502120904 20 74 14.5 29.0 0.00 0.03 0.03 76 1017.6
20260502120404 20 80 14.5 27.4 0.00 0.03 0.03 75 1017.4
20260502115903 20 80 14.5 24.1 0.00 0.03 0.03 74 1017.7
20260502114904 20 97 11.3 22.5 0.00 0.03 0.03 75 1018.1
20260502114404 20 125 17.7 25.7 0.00 0.03 0.03 75 1018.1
20260502113904 20 110 11.3 22.5 0.00 0.03 0.03 75 1018.1
20260502113403 20 113 14.5 22.5 0.00 0.03 0.03 75 1018.1
20260502112904 20 126 16.1 22.5 0.00 0.03 0.03 75 1018.1
20260502112402 20 95 11.3 24.1 0.00 0.03 0.03 77 1018.0
20260502111902 20 115 14.5 24.1 0.00 0.03 0.03 76 1018.0
20260502111402 20 98 12.9 24.1 0.00 0.03 0.03 77 1018.0
20260502110402 20 99 14.5 22.5 0.00 0.03 0.03 76 1018.2
20260502105402 20 103 16.1 25.7 0.00 0.03 0.03 77 1018.1
20260502104902 20 104 16.1 20.9 0.00 0.03 0.03 78 1018.3
20260502104403 20 141 12.9 24.1 0.00 0.03 0.03 78 1018.4
20260502103903 20 132 14.5 24.1 0.00 0.03 0.03 78 1018.4
20260502102902 20 75 16.1 20.9 0.00 0.03 0.03 80 1018.4
20260502102403 20 89 9.7 24.1 0.00 0.03 0.03 79 1018.6
20260502101903 20 130 12.9 24.1 0.00 0.03 0.03 80 1018.7
20260502101402 20 78 11.3 19.3 0.00 0.03 0.03 81 1018.7
20260502100902 20 79 8.0 12.9 0.00 0.03 0.03 83 1018.7
20260502100402 20 79 14.5 20.9 0.00 0.03 0.03 83 1018.7
20260502091402 19 106 4.8 12.9 0.00 0.03 0.03 84 1018.9
20260502090902 19 92 6.4 11.3 0.00 0.03 0.03 84 1018.9
20260502071403 18 263 1.6 3.2 0.00 0.05 0.03 85 1018.9
20260502070903 18 263 1.6 3.2 0.00 0.05 0.03 85 1018.8
20260502070402 18 263 1.6 3.2 0.00 0.05 0.03 86 1018.9
20260502065902 18 263 1.6 4.8 0.00 0.05 0.03 86 1018.9
20260502065402 17 220 3.2 4.8 0.00 0.05 0.03 86 1019.0
20260502064902 17 221 3.2 4.8 0.03 0.05 0.03 86 1019.0
20260502064402 17 211 3.2 4.8 0.03 0.05 0.03 86 1019.2
20260502063903 17 259 1.6 4.8 0.03 0.05 0.03 87 1019.1
20260502063402 17 212 1.6 4.8 0.03 0.05 0.03 87 1019.0
20260502062402 17 256 1.6 4.8 0.03 0.05 0.03 88 1019.0
20260502061902 17 202 1.6 4.8 0.03 0.05 0.03 88 1018.9
20260502060902 17 206 3.2 4.8 0.03 0.05 0.03 87 1018.8
20260502060403 17 200 1.6 4.8 0.03 0.05 0.03 88 1018.8
20260502055902 17 200 1.6 4.8 0.03 0.05 0.03 88 1018.8
20260502054902 17 185 1.6 9.7 0.00 0.03 0.00 88 1018.8
20260502054403 17 163 6.4 11.3 0.00 0.03 0.00 88 1018.8
20260502053902 17 117 4.8 9.7 0.00 0.03 0.00 89 1018.8
20260502053402 17 263 0.0 0.0 0.00 0.03 0.00 87 1018.6
20260502052903 17 263 1.6 3.2 0.00 0.03 0.00 88 1018.5
20260502052403 17 263 1.6 4.8 0.00 0.03 0.00 88 1018.4
20260502051903 17 226 3.2 8.0 0.00 0.03 0.00 88 1018.4
20260502051402 17 196 3.2 4.8 0.00 0.03 0.00 87 1018.4
20260502050903 17 232 3.2 4.8 0.00 0.03 0.00 87 1018.5
20260502045902 17 233 4.8 8.0 0.00 0.03 0.00 87 1018.6
20260502045402 17 239 4.8 8.0 0.00 0.03 0.00 88 1018.6
20260502044902 17 252 4.8 8.0 0.00 0.03 0.00 88 1018.5
20260502044403 17 222 3.2 4.8 0.00 0.03 0.00 88 1018.7
20260502043902 17 254 3.2 4.8 0.00 0.03 0.00 88 1018.7
20260502042902 17 252 4.8 4.8 0.00 0.03 0.00 88 1018.7
20260502041903 17 260 4.8 9.7 0.00 0.03 0.00 88 1018.8
20260502041402 17 256 4.8 9.7 0.00 0.03 0.00 88 1018.8
20260502040903 17 258 3.2 4.8 0.00 0.03 0.00 87 1018.8
20260502040403 17 262 4.8 8.0 0.00 0.03 0.00 87 1018.8
20260502035902 17 248 4.8 8.0 0.00 0.03 0.00 87 1018.9
20260502035403 17 221 3.2 8.0 0.00 0.03 0.00 87 1018.9
20260502034902 17 251 4.8 8.0 0.00 0.03 0.00 87 1018.9
20260502034402 17 252 4.8 9.7 0.00 0.03 0.00 87 1018.9
20260502033902 17 244 3.2 4.8 0.00 0.03 0.00 87 1018.9
20260502033403 17 241 3.2 4.8 0.00 0.03 0.00 87 1018.9
20260502032902 17 247 1.6 4.8 0.00 0.03 0.00 87 1018.9
20260502032403 17 250 4.8 4.8 0.00 0.03 0.00 87 1018.9
20260502031902 17 250 1.6 4.8 0.00 0.03 0.00 87 1018.8
20260502031402 17 252 1.6 4.8 0.00 0.03 0.00 87 1018.8
20260502030903 17 214 3.2 4.8 0.00 0.03 0.00 87 1018.7
20260502030402 17 241 1.6 4.8 0.00 0.03 0.00 87 1018.8
20260502025902 17 211 4.8 8.0 0.00 0.03 0.00 87 1018.8
20260502024902 17 218 3.2 4.8 0.00 0.03 0.00 87 1018.8
20260502024403 17 242 3.2 8.0 0.00 0.03 0.00 87 1018.9
20260502023902 17 238 3.2 4.8 0.00 0.03 0.00 86 1018.9
20260502023403 17 240 3.2 4.8 0.00 0.03 0.00 86 1018.9
20260502022902 17 269 0.0 3.2 0.00 0.03 0.00 86 1018.9
20260502022403 17 269 1.6 4.8 0.00 0.03 0.00 86 1019.1
20260502021903 17 251 3.2 8.0 0.00 0.03 0.00 86 1019.1
20260502020402 17 240 3.2 4.8 0.00 0.03 0.00 84 1019.1
20260502015903 17 191 0.0 4.8 0.00 0.03 0.00 85 1019.2
20260502015402 17 208 4.8 8.0 0.00 0.03 0.00 85 1019.2
20260502014902 17 201 3.2 8.0 0.00 0.03 0.00 85 1019.3
20260502014402 17 196 3.2 8.0 0.00 0.03 0.00 85 1019.3
20260502013903 17 252 3.2 4.8 0.00 0.03 0.00 85 1019.3
20260502013402 17 245 3.2 4.8 0.00 0.03 0.00 85 1019.2
20260502012902 17 241 4.8 8.0 0.00 0.03 0.00 85 1019.3
20260502012403 17 235 3.2 8.0 0.00 0.03 0.00 85 1019.4
20260502011902 17 250 1.6 4.8 0.00 0.03 0.00 85 1019.5
20260502011402 17 226 4.8 4.8 0.00 0.03 0.00 85 1019.5
20260502010902 17 241 4.8 9.7 0.00 0.03 0.00 85 1019.5
20260502010402 17 231 4.8 8.0 0.00 0.03 0.00 85 1019.6
20260502004902 17 209 3.2 4.8 0.00 0.03 0.00 84 1019.5
20260502004402 17 241 3.2 4.8 0.00 0.03 0.00 84 1019.6
20260502003902 17 232 3.2 4.8 0.00 0.03 0.00 84 1019.6
20260502002902 17 242 0.0 0.0 0.00 0.03 0.00 84 1019.7
20260502002402 17 242 0.0 1.6 0.00 0.03 0.00 84 1019.7
20260502001403 17 240 3.2 4.8 0.00 0.03 0.00 85 1019.9
20260502000902 17 241 0.0 3.2 0.00 0.03 0.00 85 1020.0
20260502000403 17 278 1.6 3.2 0.00 0.03 0.00 85 1020.1
20260501235903 17 278 1.6 4.8 0.00 0.03 0.00 85 1020.1
20260501235402 17 255 3.2 8.0 0.00 0.03 0.00 85 1020.2
20260501234902 17 277 3.2 8.0 0.00 0.03 0.00 85 1020.3
20260501234402 17 261 4.8 9.7 0.00 0.03 0.00 85 1020.3
20260501233903 17 249 4.8 8.0 0.00 0.03 0.00 85 1020.3
20260501232903 17 258 4.8 4.8 0.00 0.03 0.00 85 1020.3
20260501232403 17 268 3.2 4.8 0.00 0.03 0.00 85 1020.3
20260501231403 17 236 3.2 4.8 0.00 0.03 0.00 85 1020.4
20260501230903 17 239 4.8 8.0 0.00 0.03 0.00 85 1020.4
20260501230403 17 237 3.2 4.8 0.00 0.03 0.00 85 1020.3
20260501225903 17 245 3.2 4.8 0.00 0.03 0.00 84 1020.3
20260501225402 17 266 1.6 4.8 0.00 0.03 0.00 84 1020.3
20260501224903 17 246 1.6 4.8 0.00 0.03 0.00 84 1020.3
20260501224403 18 246 1.6 4.8 0.00 0.03 0.00 84 1020.3
20260501223902 18 245 1.6 4.8 0.00 0.03 0.00 84 1020.3
20260501222902 18 243 3.2 4.8 0.00 0.03 0.00 83 1020.3
20260501222403 18 271 1.6 3.2 0.00 0.03 0.00 83 1020.4
20260501221903 18 271 1.6 3.2 0.00 0.03 0.00 82 1020.4
20260501220903 18 320 3.2 8.0 0.00 0.03 0.00 82 1020.4
20260501220403 18 336 8.0 9.7 0.00 0.03 0.00 83 1020.5
20260501215902 18 340 6.4 11.3 0.00 0.03 0.03 82 1020.6
20260501215403 18 353 8.0 11.3 0.00 0.03 0.03 82 1020.7
20260501214902 18 352 6.4 9.7 0.00 0.03 0.03 82 1020.7
20260501214403 18 25 8.0 11.3 0.00 0.03 0.03 82 1020.7
20260501213902 18 350 9.7 14.5 0.00 0.03 0.03 82 1020.7
20260501213403 18 2 8.0 11.3 0.00 0.03 0.03 82 1020.7
20260501212903 18 2 8.0 11.3 0.00 0.03 0.03 82 1020.8
20260501212403 18 349 8.0 11.3 0.00 0.03 0.03 82 1020.9
20260501211403 18 341 4.8 11.3 0.00 0.03 0.03 82 1021.1
20260501210903 18 335 8.0 12.9 0.00 0.03 0.03 82 1021.1
20260501210403 18 345 8.0 9.7 0.00 0.03 0.03 83 1021.1
20260501205902 18 348 9.7 11.3 0.00 0.03 0.03 83 1021.1
20260501205403 18 353 8.0 12.9 0.00 0.03 0.03 83 1021.0
20260501204403 18 4 8.0 16.1 0.00 0.03 0.03 82 1020.8
20260501203903 18 348 9.7 14.5 0.00 0.03 0.03 82 1020.8
20260501203402 18 355 8.0 12.9 0.00 0.03 0.03 83 1020.7
20260501202903 18 18 8.0 11.3 0.00 0.03 0.03 83 1020.5
20260501202402 18 28 6.4 11.3 0.00 0.03 0.03 83 1020.5
20260501201903 18 37 4.8 11.3 0.00 0.03 0.03 83 1020.4
20260501201403 18 349 9.7 12.9 0.00 0.03 0.03 83 1020.3
20260501200402 18 359 8.0 9.7 0.00 0.03 0.03 83 1020.2
20260501195903 18 353 8.0 12.9 0.00 0.03 0.03 83 1020.2
20260501195403 18 8 6.4 11.3 0.00 0.03 0.03 83 1020.1
20260501194903 18 355 8.0 9.7 0.00 0.03 0.03 83 1019.9
20260501194403 18 350 9.7 12.9 0.00 0.03 0.03 82 1019.9
20260501193403 18 345 4.8 9.7 0.00 0.03 0.03 82 1019.9
20260501192903 18 27 4.8 8.0 0.00 0.03 0.03 82 1019.9
20260501192403 18 36 4.8 9.7 0.00 0.03 0.03 82 1019.8
20260501191903 18 1 8.0 12.9 0.00 0.03 0.03 82 1019.8
20260501191403 18 18 9.7 14.5 0.00 0.03 0.03 82 1019.8
20260501190903 18 9 9.7 14.5 0.00 0.03 0.03 82 1019.7
20260501190403 18 6 8.0 12.9 0.00 0.03 0.03 81 1019.8
20260501185903 18 15 6.4 11.3 0.00 0.03 0.03 81 1019.8
20260501184902 18 22 8.0 12.9 0.00 0.03 0.03 81 1019.8
20260501184403 18 358 6.4 12.9 0.00 0.03 0.03 81 1019.8
20260501183903 18 11 8.0 12.9 0.00 0.03 0.03 81 1019.7
20260501183403 18 6 11.3 14.5 0.00 0.03 0.03 81 1019.7
20260501182903 18 4 9.7 12.9 0.00 0.03 0.03 81 1019.6
20260501182403 18 32 9.7 12.9 0.00 0.03 0.03 81 1019.4
20260501181903 18 14 8.0 12.9 0.00 0.03 0.03 81 1019.3
20260501181402 18 357 8.0 11.3 0.00 0.03 0.03 81 1019.3